Location: Unspecified
(32.5099°N, 80.0190°W)
Time: 23:50:05
(UTC-04:00)

CZ-3 Stage 3 - Visible Passes

Search period start: 16 April 2014 00:00
Search period end: 26 April 2014 00:00
Orbit: 478 x 34778 km, 30.6° (Epoch: 14 April)

Date Brightness Start Highest point End Pass type
(mag) Time Alt. Az. Time Alt. Az. Time Alt. Az.
17 Apr 5.4 04:36:51 34° WSW 04:44:44 59° SSW 13:31:06 10° SSE visible
18 Apr 6.1 01:10:50 22° E 01:10:50 22° E 01:19:07 10° E visible
18 Apr 3.9 21:24:52 10° SSW 21:26:21 15° S 21:26:21 15° S visible
20 Apr 5.5 04:35:48 32° WSW 04:44:22 57° SSW 13:34:27 10° SSE visible
21 Apr 6.1 01:09:47 24° E 01:09:47 24° E 01:19:33 10° E visible
21 Apr 3.6 21:23:40 10° SSW 21:25:37 18° S 21:25:37 18° S visible
23 Apr 5.6 04:34:46 31° WSW 04:44:03 54° SSW 13:38:13 10° SSE visible
24 Apr 6.1 01:08:45 25° E 01:08:45 25° E 01:20:07 10° E visible
24 Apr 3.2 21:22:30 10° SW 21:24:52 21° S 21:24:52 21° S visible
